Location: France
(46.2276°N, 2.2137°E)
Time: 10:27:18
(UTC+01:00)

ISS - Visible Passes

Search period start: 21 March 2019 00:00
Search period end: 31 March 2019 00:00
Orbit: 406 x 411 km, 51.6° (Epoch: 21 March)

Date Brightness Start Highest point End Pass type
(mag) Time Alt. Az. Time Alt. Az. Time Alt. Az.
21 Mar -2.6 20:26:27 10° SSW 20:28:51 25° SSE 20:28:51 25° SSE visible
22 Mar -1.9 19:36:18 10° S 19:38:21 16° SE 19:40:24 10° E visible
22 Mar -2.8 21:11:13 10° WSW 21:13:29 41° WSW 21:13:29 41° WSW visible
23 Mar -3.7 20:20:13 10° SW 20:23:27 56° SSE 20:25:05 26° ENE visible
23 Mar -0.9 21:57:00 10° W 21:57:51 16° WNW 21:57:51 16° WNW visible
24 Mar -3.1 21:05:42 10° W 21:08:55 50° NNW 21:09:16 48° N visible
25 Mar -3.6 20:14:28 10° WSW 20:17:45 73° NNW 20:20:31 14° ENE visible
25 Mar -1.3 21:51:40 10° WNW 21:53:15 22° NW 21:53:15 22° NW visible
26 Mar -2.4 21:00:19 10° W 21:03:24 35° N 21:04:23 28° NNE visible
27 Mar -2.8 20:08:57 10° W 20:12:08 43° NNW 20:15:19 10° ENE visible
27 Mar -1.6 21:46:11 10° WNW 21:48:10 25° NNW 21:48:10 25° NNW visible
28 Mar -2.2 20:54:53 10° WNW 20:57:52 30° N 20:59:07 23° NE visible
28 Mar -0.3 22:31:43 10° WNW 22:31:51 11° WNW 22:31:51 11° WNW visible
29 Mar -2.3 20:03:31 10° WNW 20:06:33 33° N 20:09:36 10° ENE visible
29 Mar -2.0 21:40:33 10° WNW 21:42:45 30° NNW 21:42:45 30° NNW visible
30 Mar -2.4 20:49:18 10° WNW 20:52:19 31° N 20:53:37 23° NE visible
30 Mar -0.5 22:25:53 10° WNW 22:26:20 13° WNW 22:26:20 13° WNW visible
